Marshfield, WI

2:00 AM CST on January 21, 2018 (GMT -0600)
Marshfield Municipal

Weather History for KMFI - July, 2014

Change the Weather History Date:

Saturday, July 19, 2014

  Actual Average Record
Temperature  
Mean Temperature 68 °F -  
Max Temperature 79 °F 84 °F 96 °F (1964)
Min Temperature 59 °F 58 °F 38 °F (1929)
Cooling Degree Days 4    
Growing Degree Days 18 (Base 50)    
Moisture  
Dew Point 59 °F    
Average Humidity 75    
Maximum Humidity 93    
Minimum Humidity 54    
Precipitation  
Precipitation 0.00 in - - ()
Sea Level Pressure  
Sea Level Pressure 30.01 in    
Wind  
Wind Speed 8 mph (SSW)    
Max Wind Speed 17 mph    
Max Gust Speed 23 mph    
Visibility 10 miles    
Events      
Averages and records for this station are not official NWS values.
T = Trace of Precipitation, MM = Missing Value Source: NWS Daily Summary

Daily Weather History Graph

Daily Weather History Graph

Search for Another Location

Airport or City:

Trip Planner

Search our weather history database for the weather conditions in past years. The results will help you decide how hot, cold, wet, or windy it might be!

Date:

Astronomy

Jul. 19, 2014 Rise Set
Actual Time 5:33 AM CDT 8:40 PM CDT
Civil Twilight 4:58 AM CDT 9:15 PM CDT
Nautical Twilight 4:13 AM CDT 10:00 PM CDT
Astronomical Twilight 3:18 AM CDT 10:54 PM CDT
Moon 12:16 AM CDT (7/19) 2:15 PM CDT (7/19)
Length of Visible Light 16h 16m
Length of Day
15h 06m
Last Quarter, 43% of the Moon is Illuminated
Jul 19
Last Quarter
Jul 26
New
Aug 3
First Quarter
Aug 10
Full
Aug 17
Last Quarter

Hourly Weather History & Observations

Time (CDT) Temp. Dew Point Humidity Pressure Visibility Wind Dir Wind Speed Gust Speed Precip Events Conditions
12:54 AM 61.0 °F 57.0 °F 87% 30.04 in 10.0 mi South 5.8 mph - N/A   Mostly Cloudy
1:54 AM 60.1 °F 55.9 °F 86% 30.04 in 10.0 mi South 4.6 mph - N/A   Mostly Cloudy
2:54 AM 59.0 °F 55.9 °F 90% 30.03 in 10.0 mi South 6.9 mph - N/A   Partly Cloudy
3:54 AM 60.1 °F 57.0 °F 90% 30.03 in 10.0 mi South 4.6 mph - N/A   Overcast
4:54 AM 59.0 °F 57.0 °F 93% 30.03 in 10.0 mi South 5.8 mph - N/A   Overcast
5:54 AM 59.0 °F 57.0 °F 93% 30.02 in 10.0 mi South 5.8 mph - N/A   Scattered Clouds
6:54 AM 61.0 °F 57.9 °F 90% 30.03 in 10.0 mi South 5.8 mph - N/A   Mostly Cloudy
7:54 AM 62.1 °F 59.0 °F 90% 30.04 in 10.0 mi South 9.2 mph - N/A   Overcast
8:54 AM 64.0 °F 57.9 °F 80% 30.05 in 10.0 mi South 6.9 mph - N/A   Overcast
9:54 AM 66.9 °F 59.0 °F 76% 30.04 in 10.0 mi SSW 11.5 mph - N/A   Overcast
10:54 AM 71.1 °F 61.0 °F 70% 30.04 in 10.0 mi SSW 11.5 mph - N/A   Overcast
11:54 AM 73.0 °F 62.1 °F 68% 30.03 in 10.0 mi South 10.4 mph - N/A   Overcast
12:54 PM 77.0 °F 62.1 °F 60% 30.01 in 10.0 mi SSW 13.8 mph - N/A   Clear
1:54 PM 78.1 °F 61.0 °F 56% 29.99 in 10.0 mi SSW 13.8 mph 19.6 mph N/A   Clear
2:54 PM 78.1 °F 62.1 °F 58% 29.98 in 10.0 mi South 13.8 mph - N/A   Clear
3:54 PM 78.1 °F 60.1 °F 54% 29.98 in 10.0 mi SSW 17.3 mph 23.0 mph N/A   Partly Cloudy
4:37 PM 77.0 °F 59.0 °F 54% 29.98 in 10.0 mi SW 16.1 mph - N/A   Mostly Cloudy
4:54 PM 77.0 °F 60.1 °F 56% 29.97 in 10.0 mi SW 15.0 mph - N/A   Partly Cloudy
5:54 PM 75.0 °F 61.0 °F 62% 29.97 in 10.0 mi SSW 8.1 mph - N/A   Clear
6:54 PM 73.0 °F 61.0 °F 66% 29.98 in 10.0 mi SSW 6.9 mph - N/A   Clear
7:54 PM 71.1 °F 61.0 °F 70% 29.99 in 10.0 mi South 5.8 mph - N/A   Partly Cloudy
8:54 PM 69.1 °F 60.1 °F 73% 29.99 in 10.0 mi SSW 6.9 mph - N/A   Partly Cloudy
10:54 PM 66.0 °F 61.0 °F 84% 29.99 in 10.0 mi South 5.8 mph - N/A   Overcast
11:54 PM 64.0 °F 60.1 °F 87% 29.99 in 10.0 mi South 5.8 mph - N/A   Partly Cloudy